User: anonymous   Login
Location: Hamilton
(37.7830°S, 175.2830°E)
Time: 04:28:35
(UTC+13:00)
Language:

Cosmos 1709 Rocket - Orbit

View from above orbital plane
View from above orbital plane
View from above satellite
View from above satellite

Ground track
Ground track

The orbit data is extracted from the following two-line orbital elements,

1 16369U 85116B   19077.51923056 -.00000065  00000-0 -81212-4 0  9992
2 16369  82.9367 232.6876 0036767 167.4607 255.1420 13.76833888669955
Epoch (UTC): 18 March 2019 12:27:41
Eccentricity: 0.0036767
inclination: 82.9367°
perigee height: 948 km
apogee height: 1002 km
right ascension of ascending node: 232.6876°
argument of perigee: 167.4607°
revolutions per day: 13.76833888
mean anomaly at epoch: 255.1420°
orbit number at epoch: 66995

The dashed part of the orbit path shows where the satellite is in the earth's shadow,  

DLR